When you browse on this site, cookies collect data to enhance your experience and personalize the content and advertising you see.
Visit our Privacy Policy to learn more. By continuing to use the site, you agree to this use of cookies and data.
  • Em Portugal
  • Lista de países
  • Para 7 dias
  • Temperatura da água
  • Mapas de satélite
  • Mapa do tempo
  • Widgets de tempo
  • user-avatar
    Iniciar Sessão

    Previsão horária em Jalalabad

    Hoje, 21 Julho, Domingo

    Tempo Temperatura Precipitação Vento Pressão Humidade
    00:00 +36°C° 0.2 mm 2 m/s 706 mmHg 50%
    01:00 +35°C° 0.2 mm 1 m/s 706 mmHg 52%
    02:00 +35°C° 0.2 mm 1 m/s 706 mmHg 53%
    03:00 +34°C° 0.4 mm 1 m/s 706 mmHg 55%
    04:00 +34°C° 0.4 mm 1 m/s 705 mmHg 56%
    05:00 +33°C° 0 mm 1 m/s 706 mmHg 59%
    06:00 +34°C° 0.3 mm 1 m/s 706 mmHg 56%
    07:00 +34°C° 0.3 mm 1 m/s 706 mmHg 54%
    08:00 +35°C° 0.3 mm 1 m/s 706 mmHg 51%
    09:00 +36°C° 0 mm 1 m/s 706 mmHg 47%
    10:00 +38°C° 0 mm 2 m/s 706 mmHg 44%
    11:00 +39°C° 0 mm 3 m/s 706 mmHg 39%
    12:00 +40°C° 0 mm 3 m/s 706 mmHg 37%
    13:00 +42°C° 0 mm 3 m/s 705 mmHg 34%
    14:00 +42°C° 0 mm 4 m/s 705 mmHg 31%
    15:00 +43°C° 0 mm 4 m/s 705 mmHg 30%
    16:00 +43°C° 0 mm 4 m/s 704 mmHg 29%
    17:00 +43°C° 0 mm 5 m/s 704 mmHg 28%
    18:00 +42°C° 0 mm 5 m/s 704 mmHg 31%
    19:00 +41°C° 0 mm 5 m/s 705 mmHg 35%
    20:00 +40°C° 0 mm 5 m/s 705 mmHg 38%
    21:00 +40°C° 0.1 mm 4 m/s 705 mmHg 40%
    22:00 +38°C° 0.1 mm 2 m/s 705 mmHg 42%
    23:00 +37°C° 0.1 mm 1 m/s 705 mmHg 43%

    Amanhã, 22 Julho, Segunda-feira

    Tempo Temperatura Precipitação Vento Pressão Humidade
    00:00 +36°C° 0.3 mm 1 m/s 705 mmHg 45%
    01:00 +36°C° 0.3 mm 1 m/s 705 mmHg 47%
    02:00 +35°C° 0.3 mm 1 m/s 705 mmHg 49%
    03:00 +35°C° 0.2 mm 1 m/s 705 mmHg 50%
    04:00 +32°C° 0.2 mm 0 m/s 705 mmHg 52%
    05:00 +32°C° 0.2 mm 0 m/s 705 mmHg 53%
    06:00 +34°C° 0 mm 1 m/s 705 mmHg 51%
    07:00 +35°C° 0 mm 1 m/s 705 mmHg 48%
    08:00 +37°C° 0 mm 2 m/s 705 mmHg 45%
    09:00 +37°C° 0 mm 2 m/s 705 mmHg 43%
    10:00 +38°C° 0 mm 2 m/s 705 mmHg 40%
    11:00 +39°C° 0 mm 3 m/s 705 mmHg 37%
    12:00 +40°C° 0 mm 3 m/s 705 mmHg 34%
    13:00 +42°C° 0 mm 3 m/s 704 mmHg 31%
    14:00 +43°C° 0 mm 3 m/s 704 mmHg 28%
    15:00 +43°C° 0 mm 3 m/s 704 mmHg 27%
    16:00 +43°C° 0 mm 4 m/s 703 mmHg 26%
    17:00 +44°C° 0 mm 4 m/s 703 mmHg 25%
    18:00 +43°C° 0 mm 4 m/s 703 mmHg 28%
    19:00 +42°C° 0 mm 4 m/s 704 mmHg 31%
    20:00 +41°C° 0 mm 4 m/s 704 mmHg 34%
    21:00 +39°C° 0 mm 3 m/s 704 mmHg 37%
    22:00 +39°C° 0 mm 3 m/s 704 mmHg 39%
    23:00 +38°C° 0 mm 2 m/s 705 mmHg 42%

    Depois de amanhã, 23 Julho, Terça-feira

    Tempo Temperatura Precipitação Vento Pressão Humidade
    00:00 +38°C° 0 mm 2 m/s 705 mmHg 44%
    01:00 +36°C° 0 mm 1 m/s 704 mmHg 45%
    02:00 +36°C° 0 mm 1 m/s 704 mmHg 47%
    03:00 +35°C° 0 mm 1 m/s 704 mmHg 49%
    04:00 +35°C° 0 mm 1 m/s 704 mmHg 51%
    05:00 +32°C° 0 mm 0 m/s 704 mmHg 53%
    06:00 +35°C° 0 mm 1 m/s 704 mmHg 50%
    07:00 +36°C° 0 mm 1 m/s 704 mmHg 47%
    08:00 +36°C° 0 mm 1 m/s 705 mmHg 44%
    09:00 +37°C° 0 mm 1 m/s 704 mmHg 41%
    10:00 +39°C° 0 mm 2 m/s 704 mmHg 38%
    11:00 +40°C° 0 mm 2 m/s 704 mmHg 35%
    12:00 +41°C° 0 mm 2 m/s 704 mmHg 32%
    13:00 +42°C° 0 mm 2 m/s 703 mmHg 28%
    14:00 +43°C° 0 mm 2 m/s 703 mmHg 25%
    15:00 +44°C° 0 mm 3 m/s 703 mmHg 24%
    16:00 +45°C° 0 mm 3 m/s 702 mmHg 24%
    17:00 +45°C° 0 mm 3 m/s 702 mmHg 23%
    18:00 +43°C° 0 mm 2 m/s 702 mmHg 25%
    19:00 +42°C° 0 mm 2 m/s 702 mmHg 26%
    20:00 +42°C° 0 mm 2 m/s 702 mmHg 28%
    21:00 +41°C° 0 mm 2 m/s 703 mmHg 31%
    22:00 +40°C° 0 mm 2 m/s 703 mmHg 34%
    23:00 +40°C° 0 mm 1 m/s 703 mmHg 37%

    24 Julho, Quarta-feira

    Tempo Temperatura Precipitação Vento Pressão Humidade
    00:00 +39°C° 0 mm 1 m/s 703 mmHg 39%
    01:00 +37°C° 0 mm 1 m/s 703 mmHg 41%
    02:00 +37°C° 0 mm 1 m/s 702 mmHg 43%
    03:00 +36°C° 0 mm 1 m/s 702 mmHg 45%
    04:00 +36°C° 0 mm 1 m/s 702 mmHg 47%
    05:00 +33°C° 0 mm 0 m/s 702 mmHg 49%
    06:00 +36°C° 0 mm 1 m/s 703 mmHg 46%
    07:00 +37°C° 0 mm 1 m/s 703 mmHg 43%
    08:00 +37°C° 0 mm 1 m/s 703 mmHg 39%
    09:00 +39°C° 0 mm 1 m/s 703 mmHg 37%
    10:00 +40°C° 0 mm 2 m/s 703 mmHg 34%
    11:00 +41°C° 0 mm 2 m/s 703 mmHg 31%
    12:00 +42°C° 0 mm 2 m/s 702 mmHg 28%
    13:00 +43°C° 0 mm 2 m/s 702 mmHg 24%
    14:00 +45°C° 0 mm 2 m/s 701 mmHg 21%
    15:00 +46°C° 0 mm 3 m/s 701 mmHg 20%
    16:00 +46°C° 0 mm 3 m/s 701 mmHg 19%
    17:00 +46°C° 0 mm 3 m/s 701 mmHg 19%
    18:00 +45°C° 0 mm 3 m/s 701 mmHg 21%
    19:00 +45°C° 0 mm 3 m/s 701 mmHg 23%
    20:00 +44°C° 0 mm 3 m/s 701 mmHg 25%
    21:00 +42°C° 0 mm 2 m/s 702 mmHg 28%
    22:00 +41°C° 0 mm 1 m/s 702 mmHg 30%
    23:00 +41°C° 0 mm 1 m/s 702 mmHg 33%

    25 Julho, Quinta-feira

    Tempo Temperatura Precipitação Vento Pressão Humidade
    00:00 +40°C° 0 mm 1 m/s 702 mmHg 34%
    01:00 +39°C° 0 mm 1 m/s 702 mmHg 36%
    02:00 +39°C° 0 mm 1 m/s 702 mmHg 37%
    03:00 +37°C° 0 mm 1 m/s 702 mmHg 38%
    04:00 +37°C° 0 mm 1 m/s 702 mmHg 39%
    05:00 +36°C° 0 mm 1 m/s 702 mmHg 39%
    06:00 +38°C° 0 mm 2 m/s 703 mmHg 38%
    07:00 +38°C° 0 mm 3 m/s 703 mmHg 37%
    08:00 +40°C° 0 mm 4 m/s 704 mmHg 36%
    09:00 +40°C° 0 mm 5 m/s 704 mmHg 38%
    10:00 +40°C° 0 mm 5 m/s 703 mmHg 41%
    11:00 +40°C° 0 mm 6 m/s 703 mmHg 43%
    12:00 +41°C° 0 mm 6 m/s 703 mmHg 42%
    13:00 +41°C° 0 mm 6 m/s 703 mmHg 41%
    14:00 +42°C° 0 mm 6 m/s 702 mmHg 40%
    15:00 +42°C° 0 mm 6 m/s 702 mmHg 40%
    16:00 +42°C° 0 mm 6 m/s 702 mmHg 41%
    17:00 +41°C° 0 mm 7 m/s 702 mmHg 42%
    18:00 +40°C° 0 mm 7 m/s 702 mmHg 47%
    19:00 +39°C° 0 mm 6 m/s 702 mmHg 52%
    20:00 +36°C° 0 mm 6 m/s 702 mmHg 57%
    21:00 +36°C° 0.1 mm 5 m/s 703 mmHg 60%
    22:00 +35°C° 0.1 mm 4 m/s 703 mmHg 62%
    23:00 +34°C° 0.1 mm 3 m/s 704 mmHg 65%

    26 Julho, Sexta-feira

    Tempo Temperatura Precipitação Vento Pressão Humidade
    00:00 +34°C° 0.6 mm 3 m/s 703 mmHg 67%
    01:00 +32°C° 0.6 mm 2 m/s 703 mmHg 69%
    02:00 +32°C° 0.6 mm 2 m/s 703 mmHg 71%
    03:00 +31°C° 0.5 mm 2 m/s 703 mmHg 73%
    04:00 +31°C° 0.5 mm 2 m/s 703 mmHg 74%
    05:00 +31°C° 0.5 mm 2 m/s 703 mmHg 76%
    06:00 +31°C° 0.2 mm 2 m/s 703 mmHg 74%
    07:00 +31°C° 0.2 mm 2 m/s 703 mmHg 71%
    08:00 +32°C° 0.2 mm 2 m/s 703 mmHg 69%
    09:00 +34°C° 0 mm 2 m/s 703 mmHg 65%
    10:00 +35°C° 0 mm 3 m/s 703 mmHg 61%
    11:00 +36°C° 0 mm 4 m/s 703 mmHg 56%
    12:00 +36°C° 0 mm 5 m/s 703 mmHg 54%
    13:00 +37°C° 0 mm 5 m/s 702 mmHg 52%
    14:00 +38°C° 0 mm 6 m/s 702 mmHg 51%
    15:00 +36°C° 0.1 mm 6 m/s 702 mmHg 53%
    16:00 +36°C° 0.1 mm 6 m/s 702 mmHg 56%
    17:00 +35°C° 0.1 mm 6 m/s 702 mmHg 59%
    18:00 +34°C° 0.2 mm 5 m/s 702 mmHg 62%
    19:00 +33°C° 0.2 mm 4 m/s 703 mmHg 66%
    20:00 +31°C° 0.2 mm 3 m/s 703 mmHg 69%
    21:00 +31°C° 0.1 mm 3 m/s 703 mmHg 70%
    22:00 +30°C° 0.1 mm 2 m/s 703 mmHg 71%
    23:00 +30°C° 0.1 mm 2 m/s 703 mmHg 72%
    Mostrar mais